SKYNET 5D

导读 | 星芒AI

SKYNET 5D 是英国国防部运营的军事通信卫星系列中的最新成员,由萨里卫星技术有限公司(SSTL)设计和制造。该卫星旨在提供安全、可靠的战术通信能力,支持英国及其盟国的军事行动。SKYNET 5D 采用先进的X波段和Ka波段技术,具备更强的抗干扰能力和更高的数据传输速率。其部署将进一步增强全球范围内的实时通信,提升战场指挥与控制效率。卫星于2023年成功发射,标志着英国在军事空间能力上的持续投资与现代化进程。

基本信息
目录编号:
39034
目录名称:
SKYNET 5D
国际标识:
2012-075A
轨道中心:
EARTH
卫星名称:
SKYNET 5D
卫星全名:
--
卫星状态:
在轨 (已飞行4703 天)
发射日期:
2012-12-19 UTC
国别 :
英国 (GB)
星等 :
--
轨道信息
数据来源 国际轨道数据 AOE轨道数据
星历时间 2025-11-04T12:32:56+0800
9小时前
查看轨道信息
2025-11-04T03:00:00+0800
19小时前
查看轨道信息
半长轴 42165.233km 42165.093km
偏心率 0.0004613 0.0004559
轨道倾角 0.082° 0.081°
近地点辐角 230.019° 230.085°
升交点赤经 0.121° 0.256°
平近点角 294.575° 150.752°
近地点 35767.647km 35767.734km
远地点 35806.549km 35806.182km
周期 1436.122分钟 1436.115分钟
每日圈数 1.0027 1.002705
详细信息
使用方式:
暂无
2D轨道图
3D轨道图
轨道高度分析图
轨道倾角分析图
轨道综合分析图
查看轨道综合分析图